JCSAT-15 (41903 NORAD) Tracking and Keplerian Element Data

This shows tracking and keplerian element data for the satellite.

Feedback or suggestion? Click here.




ElementValue
Catalog41903
NameJCSAT-15
Epoch Orbit703
Epoch Day322.5344321
Epoch Year2018
RAAN275.6152
Inclination0.0192
Eccentricity0.0001437
Argument of Perigee358.8397
Mean Anonmoly85.5628
Mean Motion1.00272675
Decay Rate-3.42E-06
L11 41903U 16082A 18322.53443210 -.00000342 00000-0 00000+0 0 9991
L22 41903 0.0192 275.6152 0001437 358.8397 85.5628 1.00272675 7031

Live tracking and technical data element details for JCSAT-15 (NORAD 41903). JCSAT-15 can be tracked NOW for your location showing map with azimuth and elevation plus other details from your city location.

Track the satellite on the map from your city or location and see movement details for azimuth, elevation, latitude, longitude, range, height, and movement on the map or in text.







IsCatalogInMostPopularTable: catalog: 41903, numindb: 113
Update: records affected: 1



GetName: 41903 JCSAT-15

Hit Count: updated at: Tue, 20 Nov 2018 00:20:36 GMT